Location: Burland Observatory
(39.4088°N, 105.4217°W)
Time: 15:13:36
(UTC-06:00)

N. Korean satellite - Visible Passes

Search period start: 23 March 2019 00:00
Search period end: 02 April 2019 00:00
Orbit: 456 x 510 km, 97.2° (Epoch: 22 March)

Date Brightness Start Highest point End Pass type
(mag) Time Alt. Az. Time Alt. Az. Time Alt. Az.
23 Mar 10.1 06:10:23 10° ENE 06:11:55 12° E 06:13:28 10° ESE visible
27 Mar 10.4 06:05:11 10° ENE 06:05:59 11° E 06:06:47 10° ESE visible
30 Mar 9.8 06:22:25 10° NE 06:25:01 19° E 06:27:39 10° SE visible
